Location: Newark
(31.5350°N, 35.0986°E)
Time: 02:56:51
(UTC+00:00)

Courier 1B - Pass Details

Date: 22 September 2019
Orbit: 962 x 1209 km, 28.3° (Epoch: 22 October)

Event Time Altitude Azimuth Distance (km) Brightness Sun altitude
Exits shadow 02:54:21 - 241° (WSW) 3,060 9.5 -7.9°
Reaches altitude 10° 02:55:16 10° 239° (WSW) 2,746 9.3 -7.7°
Maximum altitude 03:01:42 51° 165° (SSE) 1,267 8.2 -6.3°
Drops below altitude 10° 03:08:31 10° 91° (E) 2,910 11.9 -4.9°
Sets 03:11:25 0° 87° (E) 3,907 14.0 -4.3°
